[[{"header":{"parameterUnit":"m.s-1","parameterCategory":1,"la1":30.2991,"la2":30.254,"lo1":-89.0895,"lo2":-89.0444,"dy":0.0017,"dx":0.0017,"nx":28,"ny":28,"refTime":"2026-02-13T09:00:00:Z","depth":0,"parameterNumber":2,"parameterNumberName":"U-component_of_WINDS"},"data":[0,0,0,0,0,0,0,0,0,0,0,0,0,0,0,0,0,0,0,0,0,0,0,0,0,0,0,0,0,0,0,0,0,0,0,0,0,0,0,0,0,0,0,0,0,0,0,0,0,0,0,0,0,0,0,0,0,0,-4.7609,-4.761,0,-4.7654,-4.7655,-4.7655,-4.7636,-4.7635,-4.7634,-4.7633,-4.7676,-4.7678,-4.768,0,0,0,0,0,0,0,0,0,0,0,0,0,-4.7504,-4.7506,-4.7609,-4.761,-4.761,-4.7654,-4.7655,-4.7655,-4.7636,-4.7635,-4.7633,-4.7632,-4.7675,-4.7678,-4.768,0,0,0,0,0,0,0,0,0,0,0,0,0,-4.7549,-4.7507,-4.7609,-4.7606,-4.7606,-4.7654,-4.7655,-4.7656,-4.7636,-4.7635,-4.7633,-4.7632,-4.7674,-4.7677,-4.768,-4.7733,0,0,-4.769,-4.7692,0,0,0,0,0,0,0,0,-4.7547,-4.7553,-4.7606,-4.7606,-4.7607,-4.7638,-4.7633,-4.7681,-4.7637,-4.7625,-4.7633,-4.7631,-4.7664,-4.7668,-4.768,-4.7735,-4.7737,-4.7691,-4.7693,-4.7694,-4.7695,0,0,0,0,0,0,0,-4.7544,-4.7551,-4.7627,-4.7607,-4.7607,-4.7602,-4.7606,-4.7642,-4.7653,-4.7626,-4.7624,-4.763,-4.7664,-4.7677,-4.7681,-4.7737,-4.7691,-4.7693,-4.7695,-4.7697,-4.7839,-4.784,0,0,0,0,0,0,-4.7541,-4.7549,-4.7625,-4.7628,-4.7572,-4.7605,-4.761,-4.7629,-4.7653,-4.7655,-4.7632,-4.7629,-4.7672,-4.7677,-4.7682,-4.7745,-4.7694,-4.7697,-4.7699,-4.7837,-4.7839,-4.7841,0,0,0,0,0,0,-4.7539,-4.7548,-4.7624,-4.7588,-4.7597,-4.7608,-4.763,-4.7631,-4.7644,-4.7657,-4.7658,-4.7643,-4.7671,-4.7678,-4.7721,-4.7746,-4.7698,-4.7701,-4.7835,-4.7837,-4.784,-4.7871,0,0,0,0,0,0,-4.7536,-4.7547,-4.7567,-4.7589,-4.7599,-4.7662,-4.7632,-4.7633,-4.765,-4.7647,-4.7668,-4.767,-4.767,-4.7716,-4.7724,-4.775,-4.7704,-4.7832,-4.7836,-4.7839,-4.7868,-4.7875,-4.788,0,0,0,0,0,-4.7532,-4.7574,-4.7569,-4.7578,-4.7625,-4.7663,-4.7669,-4.767,-4.7652,-4.7672,-4.7681,-4.7669,-4.7743,-4.7721,-4.773,-4.7757,-4.7831,-4.7835,-4.7839,-4.7865,-4.7873,-4.788,0,0,0,0,0,0,-4.7553,-4.7576,-4.7571,-4.7621,-4.7641,-4.766,-4.7685,-4.7679,-4.7703,-4.7699,-4.7698,-4.7703,-4.7747,-4.7757,-4.7732,-4.7809,-4.7784,-4.779,-4.7801,-4.7809,-4.7815,-4.7811,-4.7707,0,0,0,0,0,-4.7564,-4.7594,-4.7612,-4.7654,-4.7665,-4.7674,-4.769,-4.7689,-4.7709,-4.7717,-4.7729,-4.7748,-4.7775,-4.7793,-4.7819,-4.787,-4.7874,-4.7894,-4.79,-4.7905,-4.7909,-4.7937,-4.7946,-4.7854,-4.7854,-4.7854,0,0,-4.7585,-4.7602,-4.762,-4.7659,-4.7674,-4.7704,-4.768,-4.7713,-4.7735,-4.7722,-4.7763,-4.7773,-4.7794,-4.7841,-4.7863,-4.785,-4.7936,-4.791,-4.7914,-4.7916,-4.7942,-4.7951,-4.7959,-4.7857,-4.7857,-4.7856,0,0,-4.764,-4.7656,-4.7693,-4.7709,-4.7734,-4.774,-4.7749,-4.777,-4.7776,-4.7819,-4.7809,-4.7836,-4.7883,-4.7899,-4.7913,-4.7977,-4.7966,-4.7986,-4.8017,-4.8044,-4.8052,-4.8058,-4.808,-4.8088,-4.799,-4.7991,-4.7991,0,-4.7663,-4.7709,-4.7712,-4.7747,-4.7764,-4.7755,-4.7792,-4.7808,-4.7839,-4.785,-4.7837,-4.7897,-4.7911,-4.7962,-4.7978,-4.799,-4.8,-4.7981,-4.8051,-4.8057,-4.8063,-4.8084,-4.8092,-4.7993,-4.7992,-4.7992,-4.7992,0,-4.7736,-4.7769,-4.7796,-4.7828,-4.7848,-4.7883,-4.7892,-4.7912,-4.7911,-4.7918,-4.7961,-4.7978,-4.8008,-4.802,-4.8018,-4.8072,-4.8063,-4.8051,-4.8024,-4.8073,-4.8093,-4.8101,-4.7995,-4.7995,-4.7994,-4.7994,0,0,-4.7801,-4.7837,-4.7847,-4.7862,-4.7889,-4.7914,-4.7949,-4.798,-4.7997,-4.802,-4.8049,-4.8091,-4.8079,-4.8096,-4.8096,-4.812,-4.8169,-4.8104,-4.8105,-4.8114,-4.8228,-4.8236,-4.8245,-4.8164,-4.8166,-4.8167,-4.8226,0,-4.7857,-4.792,-4.7925,-4.7982,-4.8012,-4.8006,-4.8037,-4.8057,-4.8066,-4.8092,-4.8101,-4.8131,-4.8114,-4.8124,-4.8148,-4.8158,-4.8192,-4.8154,-4.819,-4.8191,-4.8182,-4.8255,-4.8264,-4.8318,-4.8234,-4.8235,-4.8236,0,-4.7929,-4.7956,-4.8016,-4.804,-4.8053,-4.8081,-4.811,-4.8135,-4.8158,-4.8163,-4.8183,-4.8181,-4.8217,-4.8192,-4.8242,-4.8217,-4.8232,-4.824,-4.8242,-4.8243,-4.8214,-4.8257,-4.8336,-4.8343,-4.8248,-4.8247,-4.8246,0,-4.7969,-4.802,-4.8062,-4.8076,-4.8106,-4.8125,-4.8139,-4.816,-4.8179,-4.8204,-4.8216,-4.8245,-4.8261,-4.8283,-4.8289,-4.8271,-4.8338,-4.8314,-4.8342,-4.8342,-4.8354,-4.8353,-4.8435,-4.8368,-4.8368,-4.8368,-4.8368,0,-4.8029,-4.8065,-4.8081,-4.8107,-4.8148,-4.8154,-4.8194,-4.8206,-4.8226,-4.8254,-4.8251,-4.8277,-4.8284,-4.8311,-4.8316,-4.8356,-4.8364,-4.8368,-4.8368,-4.8367,-4.8366,-4.8375,-4.837,-4.837,-4.837,-4.8369,-4.8369,0,-4.8079,-4.8091,-4.8137,-4.8163,-4.817,-4.8199,-4.8221,-4.8246,-4.8256,-4.8291,-4.83,-4.8315,-4.8347,-4.8356,-4.8394,-4.8397,-4.8444,-4.8442,-4.8436,-4.8436,-4.8462,-4.8459,-4.8551,-4.8563,-4.849,-4.8491,-4.8492,0,-4.8115,-4.8143,-4.8173,-4.8192,-4.8207,-4.8238,-4.8257,-4.8265,-4.8286,-4.8316,-4.8337,-4.8369,-4.8395,-4.8447,-4.846,-4.849,-4.8487,-4.8518,-4.8491,-4.8489,-4.8486,-4.8483,-4.8486,-4.8521,-4.8522,-4.8523,-4.8523,0,-4.8177,-4.8182,-4.8211,-4.8243,-4.8267,-4.8292,-4.8316,-4.8331,-4.8343,-4.8366,-4.84,-4.842,-4.8461,-4.8492,-4.8523,-4.8536,-4.8531,-4.8532,-4.854,-4.8537,-4.8532,-4.8534,-4.8448,-4.8529,-4.8528,-4.8528,-4.8528,-4.8527,-4.822,-4.8245,-4.827,-4.8303,-4.8323,-4.8346,-4.837,-4.8385,-4.8413,-4.8447,-4.8451,-4.8487,-4.8511,-4.8552,-4.8567,-4.8595,-4.8586,-4.8597,-4.86,-4.8602,-4.8604,-4.853,-4.8601,-4.8601,-4.8601,-4.8601,-4.8601,0,-4.828,-4.8298,-4.8328,-4.8362,-4.8388,-4.8385,-4.8412,-4.8433,-4.8465,-4.8489,-4.8515,-4.8554,-4.8586,-4.8604,-4.8635,-4.8654,-4.8653,-4.8662,-4.8659,-4.8662,-4.8611,-4.86,-4.8663,-4.8663,-4.8663,-4.8663,-4.8663,-4.8663,-4.8315,-4.8357,-4.8366,-4.8418,-4.8435,-4.8471,-4.8487,-4.8508,-4.8527,-4.8571,-4.8598,-4.861,-4.8631,-4.8665,-4.8694,-4.8698,-4.8709,-4.8719,-4.8722,-4.8673,-4.8666,-4.866,-4.865,-4.8722,-4.8722,-4.8771,-4.8771,-4.8772]},{"header":{"parameterUnit":"m.s-1","parameterCategory":1,"la1":30.2991,"la2":30.254,"lo1":-89.0895,"lo2":-89.0444,"dy":0.0017,"dx":0.0017,"nx":28,"ny":28,"refTime":"2026-02-13T09:00:00:Z","depth":0,"parameterNumber":3,"parameterNumberName":"V-component_of_WINDS"},"data":[0,0,0,0,0,0,0,0,0,0,0,0,0,0,0,0,0,0,0,0,0,0,0,0,0,0,0,0,0,0,0,0,0,0,0,0,0,0,0,0,0,0,0,0,0,0,0,0,0,0,0,0,0,0,0,0,0,0,2.1922,2.1923,0,2.2004,2.2005,2.2006,2.2093,2.2094,2.2095,2.2097,2.2173,2.2174,2.2175,0,0,0,0,0,0,0,0,0,0,0,0,0,2.1838,2.1839,2.1922,2.1923,2.1924,2.2004,2.2005,2.2006,2.2093,2.2094,2.2096,2.2097,2.2173,2.2174,2.2175,0,0,0,0,0,0,0,0,0,0,0,0,0,2.1892,2.184,2.1922,2.1977,2.1983,2.2003,2.2005,2.2006,2.2092,2.2094,2.2096,2.2098,2.2173,2.2174,2.2175,2.2145,0,0,2.2179,2.218,0,0,0,0,0,0,0,0,2.1889,2.1895,2.1968,2.1974,2.198,2.204,2.2003,2.2053,2.2092,2.2051,2.2097,2.2099,2.2127,2.2132,2.2143,2.2149,2.2152,2.2179,2.218,2.2181,2.2181,0,0,0,0,0,0,0,2.1885,2.1892,2.1954,2.1969,2.1976,2.1997,2.2007,2.2013,2.2077,2.2054,2.2061,2.207,2.2131,2.2142,2.2145,2.2153,2.2179,2.218,2.2181,2.2182,2.2143,2.2141,0,0,0,0,0,0,2.1874,2.1889,2.1952,2.1957,2.1939,2.1997,2.2008,2.2019,2.2077,2.2088,2.2068,2.2074,2.2138,2.2144,2.2148,2.2121,2.218,2.2182,2.2182,2.2145,2.2143,2.2141,0,0,0,0,0,0,2.1872,2.1879,2.1948,2.1925,2.1935,2.1996,2.2008,2.202,2.2031,2.2088,2.2099,2.2068,2.214,2.2147,2.2147,2.2125,2.2182,2.2183,2.2147,2.2144,2.2142,2.2063,0,0,0,0,0,0,2.1869,2.1877,2.1867,2.1924,2.1936,2.1946,2.2007,2.202,2.2034,2.2042,2.2091,2.21,2.2142,2.2145,2.2148,2.2128,2.2184,2.2149,2.2146,2.2143,2.2068,2.2058,2.205,0,0,0,0,0,2.1866,2.1839,2.1866,2.1873,2.1925,2.1945,2.1952,2.2002,2.2031,2.2022,2.2059,2.2099,2.2126,2.2144,2.2149,2.2128,2.2151,2.2147,2.2143,2.2072,2.206,2.205,0,0,0,0,0,0,2.1775,2.1848,2.1878,2.187,2.1901,2.196,2.1949,2.1987,2.2009,2.2015,2.2075,2.2085,2.2079,2.2103,2.2121,2.2104,2.2144,2.2141,2.2089,2.2078,2.2069,2.2064,2.2186,0,0,0,0,0,2.1755,2.1767,2.1829,2.1815,2.183,2.1886,2.1897,2.1934,2.1967,2.198,2.2017,2.2046,2.2063,2.2071,2.2088,2.2072,2.2085,2.206,2.2051,2.2043,2.204,2.2036,2.2027,2.2127,2.2127,2.2127,0,0,2.1712,2.1753,2.1756,2.1798,2.1827,2.1837,2.1897,2.1904,2.1913,2.198,2.1985,2.2013,2.205,2.2042,2.2041,2.2062,2.2015,2.2038,2.2031,2.2032,2.2031,2.2021,2.2013,2.2125,2.2125,2.2126,0,0,2.164,2.1672,2.1666,2.1695,2.1738,2.1777,2.1775,2.1829,2.1852,2.1857,2.191,2.1919,2.1944,2.197,2.1986,2.1927,2.1966,2.1931,2.1883,2.1879,2.1871,2.1865,2.1846,2.1839,2.1927,2.1927,2.1927,0,2.1581,2.1601,2.1658,2.1664,2.1682,2.1747,2.1742,2.1766,2.1811,2.1822,2.1846,2.1882,2.191,2.1912,2.1899,2.1908,2.1909,2.1926,2.1868,2.1862,2.1856,2.184,2.1833,2.1923,2.1923,2.1924,2.1924,0,2.1528,2.154,2.153,2.1578,2.1594,2.1593,2.165,2.166,2.1695,2.1731,2.1737,2.1775,2.1803,2.1806,2.1838,2.1812,2.1825,2.1857,2.1899,2.1842,2.1827,2.1821,2.1917,2.1918,2.1919,2.1921,0,0,2.14,2.1482,2.1477,2.1501,2.1555,2.1566,2.1569,2.16,2.1608,2.1637,2.1643,2.1664,2.1696,2.1714,2.1751,2.1747,2.1702,2.1781,2.1782,2.1767,2.1679,2.1656,2.1648,2.1728,2.1727,2.1726,2.1677,0,2.134,2.1354,2.1406,2.1404,2.1418,2.1481,2.1485,2.1518,2.1552,2.1568,2.1604,2.162,2.1659,2.1671,2.167,2.1708,2.1686,2.1712,2.1734,2.1734,2.1725,2.164,2.1615,2.1568,2.1672,2.1671,2.167,0,2.1271,2.1302,2.1301,2.1359,2.1367,2.1369,2.1404,2.1417,2.1457,2.1482,2.1504,2.1547,2.1554,2.1592,2.1604,2.1621,2.1633,2.1653,2.1652,2.1658,2.17,2.1646,2.1553,2.1547,2.1661,2.1662,2.1662,0,2.1183,2.1222,2.1229,2.1246,2.1313,2.1314,2.1341,2.1383,2.1399,2.1428,2.1439,2.1467,2.1482,2.1503,2.1552,2.1574,2.1559,2.16,2.158,2.1579,2.1575,2.1575,2.1486,2.1579,2.1579,2.1579,2.1579,0,2.1112,2.111,2.1191,2.1194,2.1195,2.1255,2.1253,2.1286,2.1323,2.1334,2.1389,2.1398,2.1461,2.1477,2.1515,2.1521,2.1526,2.1547,2.1557,2.1544,2.1541,2.1553,2.1559,2.1577,2.1577,2.1578,2.1578,0,2.1013,2.1067,2.1079,2.1142,2.1158,2.1156,2.121,2.1216,2.1254,2.1268,2.1274,2.1333,2.1356,2.1407,2.144,2.1466,2.1463,2.148,2.1451,2.1458,2.1437,2.1439,2.1354,2.1347,2.1441,2.144,2.1439,0,2.0965,2.0966,2.1031,2.1044,2.1071,2.109,2.1108,2.1167,2.1184,2.1231,2.1231,2.1259,2.1284,2.1316,2.1361,2.1389,2.1409,2.1377,2.1413,2.14,2.1412,2.1412,2.1414,2.1369,2.1368,2.1367,2.1366,0,2.0876,2.0904,2.0929,2.0964,2.0985,2.1015,2.1047,2.1054,2.1121,2.1137,2.1162,2.1182,2.122,2.1246,2.1281,2.1308,2.1349,2.1355,2.1352,2.1339,2.1323,2.1335,2.1432,2.1356,2.1357,2.1358,2.1359,2.1359,2.0804,2.0809,2.0857,2.0884,2.0916,2.0946,2.0956,2.0997,2.102,2.1058,2.1091,2.1113,2.1155,2.1207,2.1231,2.1249,2.1269,2.1265,2.1264,2.1263,2.1258,2.1319,2.1255,2.1256,2.1256,2.1256,2.1257,0,2.072,2.0755,2.0779,2.0826,2.0847,2.0886,2.0924,2.0939,2.096,2.0996,2.1022,2.1052,2.1079,2.1127,2.1158,2.1164,2.1183,2.117,2.1171,2.1178,2.1237,2.1237,2.1154,2.1154,2.1154,2.1154,2.1154,2.1154,2.0679,2.0692,2.0725,2.0754,2.0788,2.0814,2.0833,2.0861,2.0892,2.0924,2.0948,2.0981,2.1022,2.1058,2.1084,2.1098,2.1108,2.1089,2.1109,2.1163,2.1173,2.1182,2.1183,2.109,2.109,2.1049,2.1048,2.1048]}]]